Location: Unspecified
(0.0000°N, 0.0000°E)
Time: 00:31:00
(UTC+02:00)

ATLAS 2AS CENTAUR R/B - Visible Passes

Search period start: 31 August 2015 00:00
Search period end: 10 September 2015 00:00
Orbit: 911 x 1301 km, 63.7° (Epoch: 28 August)

Date Brightness Start Highest point End Pass type
(mag) Time Alt. Az. Time Alt. Az. Time Alt. Az.
31 Aug 2.6 21:13:30 10° SSW 21:19:50 62° ESE 21:26:50 10° NNE visible
31 Aug 5.3 23:07:56 10° W 23:11:05 13° WNW 23:13:44 10° NW visible
01 Sep 3.3 20:29:36 10° S 20:35:10 32° ESE 20:41:19 10° NE visible
01 Sep 4.6 22:20:34 10° WSW 22:26:01 26° WNW 22:31:37 10° NNW visible
02 Sep 3.6 21:34:50 10° SW 21:41:07 48° WNW 21:47:57 10° N visible
03 Sep 5.8 07:25:53 10° NE 07:29:08 14° ENE 07:32:53 10° E visible
03 Sep 2.7 20:49:54 10° SSW 20:56:22 90° ESE 21:03:32 10° NNE visible
04 Sep 5.2 21:58:21 10° WSW 22:02:46 17° WNW 22:06:59 10° NNW visible
05 Sep 4.4 21:11:52 10° SW 21:17:46 33° WNW 21:24:00 10° N visible
06 Sep 5.5 07:00:44 10° NNE 07:05:56 21° ENE 07:11:14 10° ESE visible
06 Sep 3.3 20:26:31 10° SSW 20:32:56 63° WNW 20:39:59 10° NNE visible
07 Sep 5.7 21:37:30 10° WNW 21:39:35 11° WNW 21:41:00 10° NW visible
08 Sep 3.7 07:20:09 10° N 07:27:33 55° ENE 07:34:22 10° SE visible
08 Sep 5.2 20:49:17 10° WSW 20:54:28 23° WNW 20:59:43 10° NNW visible
09 Sep 4.7 06:36:18 10° N 06:42:40 30° ENE 06:48:48 10° SE visible
